Stations météo

réclame
Mon MeteoGroup
Elsenborn, Belgique (6496): Température de l'air & dewpoint: 19.09.2017 22:00:00 - 25.09.2017 22:00:00 (CEST)Elsenborn, Belgique (6496): Vitesse du vent & gusts: 19.09.2017 22:00:00 - 25.09.2017 22:00:00 (CEST)Elsenborn, Belgique (6496): Direction du vent: 19.09.2017 22:00:00 - 25.09.2017 22:00:00 (CEST)Elsenborn, Belgique (6496): reduced air pressure: 19.09.2017 22:00:00 - 25.09.2017 22:00:00 (CEST)Elsenborn, Belgique (6496): visibility: 19.09.2017 22:00:00 - 25.09.2017 22:00:00 (CEST)
Date & Time tt [°C] td [°C] ff [km/h] ff [knt] fx [km/h] fx [knt] dd ppp [hPa] vv [km]
25.09.2017 22:00:00 7,7 7,4 2 1 4 2 - 1022,2 7
25.09.2017 21:00:00 8,5 8,0 2 1 7 4 - 1022,1 10
25.09.2017 20:00:00 10,6 9,0 4 2 - - N 1021,2 20
25.09.2017 19:00:00 13,3 9,4 4 2 11 6 - 1020,2 10
25.09.2017 18:00:00 15,0 8,7 7 4 14 8 E 1019,6 20
25.09.2017 17:00:00 15,8 8,8 7 4 - - SE 1019,2 20
25.09.2017 16:00:00 15,1 8,8 7 4 14 8 E 1019,5 20
25.09.2017 15:00:00 15,1 9,2 7 4 14 8 NE 1019,5 20
25.09.2017 14:00:00 15,0 9,2 7 4 - - ESE 1019,6 20
25.09.2017 13:00:00 14,3 9,5 8 4 18 10 ESE 1020,0 10
25.09.2017 12:00:00 14,8 8,8 11 6 18 10 ESE 1020,0 20
25.09.2017 11:00:00 14,1 8,8 7 4 - - E 1020,3 20
25.09.2017 10:00:00 11,0 9,0 2 1 - - - - 10
25.09.2017 09:00:00 3,9 3,9 4 2 7 4 N 1023,0 0,1
25.09.2017 08:00:00 2,0 1,9 4 2 - - N 1023,6 0,1
25.09.2017 07:00:00 1,7 1,7 2 1 4 2 - 1023,6 3,4
25.09.2017 06:00:00 2,2 2,2 4 2 4 2 N 1023,5 -
25.09.2017 05:00:00 2,2 2,2 2 1 - - - 1023,7 0,7
25.09.2017 04:00:00 2,7 2,7 0 0 4 2 N 1024,0 0,1
25.09.2017 03:00:00 3,7 3,6 0 0 4 2 N 1023,8 0,1
25.09.2017 02:00:00 4,3 4,3 4 2 - - N 1024,0 0,2
25.09.2017 01:00:00 5,7 5,5 4 2 7 4 N 1024,0 0,2
25.09.2017 00:00:00 6,1 5,9 5 3 7 4 ESE 1024,2 1,5
24.09.2017 23:00:00 6,3 5,6 5 3 - - ESE 1024,2 3,6
24.09.2017 22:00:00 7,6 7,0 4 2 4 2 N 1024,0 1,9
24.09.2017 21:00:00 9,7 8,7 4 2 11 6 N 1023,3 10
24.09.2017 20:00:00 10,6 8,6 7 4 - - E 1023,0 15
24.09.2017 19:00:00 13,7 9,1 4 2 14 8 N 1022,1 20
24.09.2017 18:00:00 15,6 9,4 9 5 18 10 ENE 1021,5 10
24.09.2017 17:00:00 16,2 10,1 7 4 - - ENE 1021,2 16
24.09.2017 16:00:00 17,2 9,8 4 2 18 10 N 1021,2 15
24.09.2017 15:00:00 16,5 8,4 4 2 14 8 N 1021,5 20
24.09.2017 14:00:00 17,4 8,9 4 2 - - N 1021,5 20
24.09.2017 13:00:00 16,0 7,6 4 2 14 8 N 1021,7 20
24.09.2017 12:00:00 15,4 8,9 7 4 14 8 ESE 1022,2 17
24.09.2017 11:00:00 14,2 10,6 4 2 - - N 1022,7 10
24.09.2017 10:00:00 8,6 8,6 2 1 0 0 - 1023,7 0,4
24.09.2017 09:00:00 4,4 4,4 4 2 4 2 N 1024,5 0,1
24.09.2017 08:00:00 1,9 1,9 4 2 - - N 1025,0 0,1
24.09.2017 07:00:00 1,7 1,6 4 2 4 2 N 1024,9 -
24.09.2017 06:00:00 2,4 2,3 4 2 4 2 N 1024,7 0,1
24.09.2017 05:00:00 2,2 2,2 4 2 - - N 1024,9 0,4
24.09.2017 04:00:00 3,2 3,2 4 2 0 0 N 1024,5 0,1
24.09.2017 03:00:00 4,0 4,0 4 2 7 4 N 1024,5 0,1
24.09.2017 02:00:00 4,6 4,6 4 2 - - N 1024,5 -
24.09.2017 01:00:00 4,5 4,5 2 1 4 2 - 1024,7 -
24.09.2017 00:00:00 5,8 5,5 4 2 7 4 N 1024,5 0,4
23.09.2017 23:00:00 7,0 6,7 4 2 - - N 1024,2 2,4
23.09.2017 22:00:00 7,6 7,0 4 2 7 4 N 1024,2 3,5
23.09.2017 21:00:00 8,8 7,8 4 2 7 4 N 1023,8 8
23.09.2017 20:00:00 10,1 8,5 4 2 - - - 1023,2 10
23.09.2017 19:00:00 12,6 8,7 7 4 14 8 ENE 1022,6 20
23.09.2017 18:00:00 14,0 8,9 7 4 14 8 ENE 1022,1 19
23.09.2017 17:00:00 15,0 8,6 7 4 - - E 1022,1 20
23.09.2017 16:00:00 14,6 9,1 7 4 14 8 NE 1022,5 20
23.09.2017 15:00:00 15,0 6,5 4 2 11 6 N 1023,0 20
23.09.2017 14:00:00 14,0 8,0 4 2 - - N 1023,2 20
23.09.2017 13:00:00 14,8 8,4 4 2 11 6 N 1023,2 20
23.09.2017 12:00:00 13,0 8,4 7 4 11 6 NNE 1024,2 20
23.09.2017 11:00:00 10,2 8,9 4 2 - - - 1025,0 10
23.09.2017 10:00:00 8,8 8,8 4 2 7 4 - 1025,2 1,9
23.09.2017 09:00:00 6,8 6,8 4 2 4 2 N 1025,4 0,1
23.09.2017 08:00:00 5,6 5,6 4 2 - - N 1025,7 -
23.09.2017 07:00:00 7,0 7,0 4 2 4 2 N 1025,2 -
23.09.2017 06:00:00 6,9 6,9 4 2 4 2 N 1025,0 0,2
23.09.2017 05:00:00 8,1 8,1 2 1 - - - 1025,0 -
23.09.2017 04:00:00 8,6 8,6 4 2 7 4 N 1024,7 0,1
23.09.2017 03:00:00 9,3 9,3 2 1 7 4 - 1024,4 2,5
23.09.2017 02:00:00 8,5 8,0 4 2 - - N 1024,7 3,3
23.09.2017 01:00:00 9,2 8,8 4 2 7 4 N 1024,5 1,8
23.09.2017 00:00:00 9,0 8,4 4 2 7 4 - 1024,2 1,4
22.09.2017 23:00:00 10,1 9,8 4 2 - - N 1024,2 3,3
22.09.2017 22:00:00 11,5 10,7 4 2 7 4 N 1023,5 5
22.09.2017 21:00:00 11,6 10,5 4 2 4 2 N 1023,2 18
22.09.2017 20:00:00 12,5 10,4 2 1 - - - 1022,3 10
22.09.2017 19:00:00 13,3 9,9 4 2 11 6 N 1021,7 20
22.09.2017 18:00:00 14,3 9,8 7 4 14 8 NW 1021,2 20
22.09.2017 17:00:00 15,1 9,0 7 4 - - NW 1020,7 20
22.09.2017 16:00:00 15,7 8,8 11 6 18 10 NW 1020,5 19
22.09.2017 15:00:00 15,8 9,0 11 6 18 10 WSW 1020,2 20
22.09.2017 14:00:00 15,1 8,7 7 4 - - WSW 1020,5 20
22.09.2017 13:00:00 14,8 8,3 4 2 14 8 N 1020,3 20
22.09.2017 12:00:00 15,0 8,6 4 2 11 6 N 1020,3 18
22.09.2017 11:00:00 13,3 9,2 4 2 - - N 1020,6 20
22.09.2017 10:00:00 10,0 8,7 0 0 4 2 N 1021,2 18
22.09.2017 09:00:00 6,4 5,4 4 2 4 2 N 1021,8 11
22.09.2017 08:00:00 1,8 1,7 4 2 - - N 1022,8 6
22.09.2017 07:00:00 1,6 1,4 0 0 0 0 N 1022,7 6
22.09.2017 06:00:00 1,6 1,4 4 2 4 2 N 1022,6 10
22.09.2017 05:00:00 2,2 2,0 2 1 - - - 1022,5 7
22.09.2017 04:00:00 2,7 2,4 2 1 0 0 - 1022,5 10
22.09.2017 03:00:00 3,0 2,7 4 2 0 0 N 1022,7 11
22.09.2017 02:00:00 3,0 2,8 2 1 - - - 1022,7 7
22.09.2017 01:00:00 3,7 3,5 2 1 7 4 - 1022,6 7
22.09.2017 00:00:00 5,4 5,0 4 2 7 4 N 1022,1 12
21.09.2017 23:00:00 5,6 5,2 4 2 - - N 1022,0 17
21.09.2017 22:00:00 6,5 6,0 4 2 4 2 N 1021,5 14
21.09.2017 21:00:00 7,7 7,0 4 2 4 2 N 1021,2 20
21.09.2017 20:00:00 9,7 7,9 4 2 - - N 1020,3 11
21.09.2017 19:00:00 13,1 7,8 4 2 11 6 N 1019,3 20
21.09.2017 18:00:00 14,2 7,4 4 2 14 8 N 1019,2 20
21.09.2017 17:00:00 15,3 6,4 7 4 - - SSW 1018,8 20
21.09.2017 16:00:00 14,7 7,1 7 4 18 10 S 1019,2 20
21.09.2017 15:00:00 14,2 7,4 7 4 22 12 SSW 1019,7 20
21.09.2017 14:00:00 13,7 6,4 11 6 - - S 1020,2 20
21.09.2017 13:00:00 13,0 6,3 11 6 22 12 SW 1020,7 20
21.09.2017 12:00:00 12,8 7,2 11 6 18 10 S 1020,8 20
21.09.2017 11:00:00 11,7 6,4 7 4 - - S 1021,6 20
21.09.2017 10:00:00 10,7 7,5 4 2 7 4 N 1021,6 20
21.09.2017 09:00:00 5,3 5,0 2 1 0 0 - 1022,7 0,6
21.09.2017 08:00:00 0,6 0,5 4 2 - - N 1024,2 9
21.09.2017 07:00:00 0,4 0,3 2 1 4 2 - 1024,2 1,0
21.09.2017 06:00:00 0,6 0,6 0 0 0 0 N 1024,0 0,7
21.09.2017 05:00:00 1,1 1,1 0 0 - - N 1024,0 0,2
21.09.2017 04:00:00 2,0 2,0 4 2 0 0 N 1024,0 0,4
21.09.2017 03:00:00 2,1 2,0 0 0 0 0 N 1024,0 0,3
21.09.2017 02:00:00 3,2 3,0 2 1 - - - 1024,0 2,8
21.09.2017 01:00:00 3,7 3,6 4 2 0 0 N 1023,7 0,6
21.09.2017 00:00:00 4,8 4,3 4 2 0 0 N 1023,6 12
20.09.2017 23:00:00 5,6 5,2 2 1 - - - 1023,2 10
20.09.2017 22:00:00 7,0 6,2 4 2 7 4 N 1023,0 8
20.09.2017 21:00:00 9,0 8,1 4 2 7 4 N 1022,5 20
20.09.2017 20:00:00 9,2 7,8 4 2 - - N 1022,1 20
20.09.2017 19:00:00 11,1 7,2 2 1 14 8 - 1021,2 10
20.09.2017 18:00:00 12,0 7,7 4 2 14 8 N 1021,0 20
20.09.2017 17:00:00 11,8 6,7 7 4 - - W 1021,2 20
20.09.2017 16:00:00 12,2 7,3 11 6 22 12 W 1021,2 20
20.09.2017 15:00:00 12,0 6,7 14 8 25 14 W 1021,2 20
20.09.2017 14:00:00 11,1 6,3 11 6 - - W 1021,8 10
20.09.2017 13:00:00 11,4 6,4 11 6 22 12 WSW 1021,8 20
20.09.2017 12:00:00 11,1 8,2 11 6 22 12 W 1022,1 20
20.09.2017 11:00:00 9,1 7,9 11 6 - - WSW 1022,6 10
20.09.2017 10:00:00 8,3 8,3 11 6 18 10 W 1022,6 4,4
20.09.2017 09:00:00 8,1 8,1 7 4 14 8 WSW 1022,3 0,2
20.09.2017 08:00:00 7,6 7,6 4 2 - - N 1022,5 0,2
20.09.2017 07:00:00 7,6 7,6 7 4 14 8 WSW 1022,2 0,1
20.09.2017 06:00:00 7,5 7,4 7 4 14 8 WSW 1022,1 0,1
20.09.2017 05:00:00 8,0 8,0 7 4 - - WSW 1022,1 1,3
20.09.2017 04:00:00 8,1 8,1 4 2 7 4 N 1021,8 0,6
20.09.2017 03:00:00 6,3 6,2 2 1 4 2 - 1022,6 1,5
20.09.2017 02:00:00 7,3 7,1 4 2 - - N 1022,5 2,0
20.09.2017 01:00:00 6,9 6,6 4 2 11 6 N 1022,7 3,0
20.09.2017 00:00:00 6,2 6,1 2 1 4 2 - 1022,7 3,8
19.09.2017 23:00:00 4,6 4,6 4 2 - - N 1023,2 5
19.09.2017 22:00:00 5,0 4,9 4 2 4 2 N 1023,0 3,5

tt = Température de l'air
td = dewpoint
ff = Vitesse du vent
fx = gusts
dd = Direction du vent
ppp = reduced air pressure
vv = visibility

stations d'obs. à proximité